Terminal Aerodrome Forecast
Issued by NWS

Home | Current Version | Previous Version | Text Only | Print | Product List | Glossary On
Versions: 1 2 3 4 5 6 7 8 9 10 11 12 13 14
000
FTUS46 KSTO 181100
TAFRBL
TAF
KRBL 181122Z 1812/1912 33006KT P6SM SKC
     FM181800 36011KT P6SM SKC
     FM190300 VRB04KT P6SM SCT150=

USA.gov is the U.S. government's official web portal to all federal, state and local government web resources and services.